Terug naar catalogus

THORAD AGENA D DEB

ActiefPO
NORAD 5024·DEBRIS·🇺🇸 United States

Gelanceerd Apr 8, 1970 vanaf Vandenberg Space Force Base

Loading…

Volgende Passages (komende 24 uur)

TLE

VersSource: Space-Track

Epoch: Sep 14, 2026, 03:31 UTC

1 05024U 70025HY  26257.14708190  .00000868  00000-0  37589-3 0  9994
2 05024  99.8288 234.2119 0081508 238.5614 120.7574 14.25664306884687

Volg THORAD AGENA D DEB in realtime met AllMySat

Download on the App Store